Weather History for West Plains, MO

Change the Weather History Date:

Friday, November 16, 2012

  Actual Average Record
Temperature  
Mean Temperature 45 °F 47 °F  
Max Temperature 60 °F 57 °F 77 °F (1952)
Min Temperature 30 °F 37 °F 17 °F (1970)
Degree Days  
Heating Degree Days 20 18  
Month to date heating degree days 286 247  
Since 1 July heating degree days 654 550  
Cooling Degree Days 0 0  
Month to date cooling degree days 0 0  
Year to date cooling degree days 1739 1352  
Moisture  
Dew Point 27 °F    
Average Humidity 56    
Maximum Humidity 79    
Minimum Humidity 31    
Precipitation  
Precipitation 0.00 in 0.16 in 3.68 in (1958)
Month to date precipitation 1.30 2.37  
Year to date precipitation 29.56 40.37  
Sea Level Pressure  
Sea Level Pressure 30.42 in    
Wind  
Wind Speed 1 mph (ENE)    
Max Wind Speed 9 mph    
Max Gust Speed 13 mph    
Visibility 10 miles    
Events      
T = Trace of Precipitation, MM = Missing Value Source: NWS Daily Summary

Daily Weather History Graph

Daily Weather History Graph

Search for Another Location

Airport:

Trip Planner

Search our weather history database for the weather conditions in past years. The results will help you decide how hot, cold, wet, or windy it might be!

Date:

Astronomy

Nov. 16, 2012 Rise Set
Actual Time 6:47 AM CST 4:57 PM CST
Civil Twilight 6:19 AM CST 5:24 PM CST
Nautical Twilight 5:48 AM CST 5:56 PM CST
Astronomical Twilight 5:17 AM CST 6:27 PM CST
Moon 9:41 AM CST (11/16) 7:58 PM CST (11/16)
Length of Visible Light 11h 05m
Length of Day
10h 09m
Waxing Crescent, 12% of the Moon is Illuminated
Nov 16
Waxing Crescent
Nov 20
First Quarter
Nov 28
Full
Dec 6
Last Quarter
Dec 13
New

Hourly Weather History & Observations

Time (CST) Temp. Dew Point Humidity Pressure Visibility Wind Dir Wind Speed Gust Speed Precip Events Conditions
12:53 AM 36.0 °F 27.0 °F 70% 30.39 in 10.0 mi Calm Calm - N/A   Clear
1:53 AM 35.1 °F 26.1 °F 70% 30.39 in 10.0 mi Calm Calm - N/A   Clear
2:53 AM 33.1 °F 26.1 °F 75% 30.39 in 10.0 mi Calm Calm - N/A   Clear
3:53 AM 32.0 °F 26.1 °F 79% 30.39 in 10.0 mi Calm Calm - N/A   Clear
4:53 AM 34.0 °F 25.0 °F 70% 30.40 in 10.0 mi Calm Calm - N/A   Clear
5:53 AM 33.1 °F 25.0 °F 72% 30.41 in 10.0 mi Calm Calm - N/A   Clear
6:53 AM 32.0 °F 24.1 °F 73% 30.43 in 10.0 mi Calm Calm - N/A   Clear
7:53 AM 39.0 °F 32.0 °F 76% 30.45 in 10.0 mi Calm Calm - N/A   Clear
8:53 AM 48.9 °F 28.0 °F 44% 30.45 in 10.0 mi NE 3.5 mph - N/A   Clear
9:53 AM 51.1 °F 27.0 °F 39% 30.45 in 10.0 mi East 3.5 mph - N/A   Clear
10:53 AM 54.0 °F 28.0 °F 37% 30.45 in 10.0 mi East 5.8 mph - N/A   Clear
11:53 AM 57.0 °F 28.9 °F 34% 30.43 in 10.0 mi NNE 3.5 mph - N/A   Clear
12:53 PM 59.0 °F 28.9 °F 32% 30.41 in 10.0 mi NNE 4.6 mph - N/A   Clear
1:53 PM 57.9 °F 28.9 °F 33% 30.40 in 10.0 mi ENE 4.6 mph - N/A   Clear
2:53 PM 60.1 °F 28.9 °F 31% 30.39 in 10.0 mi Variable 3.5 mph - N/A   Clear
3:53 PM 57.9 °F 27.0 °F 31% 30.40 in 10.0 mi East 3.5 mph - N/A   Clear
4:53 PM 54.0 °F 27.0 °F 35% 30.40 in 10.0 mi Calm Calm - N/A   Clear
5:53 PM 46.0 °F 28.9 °F 51% 30.42 in 10.0 mi Calm Calm - N/A   Clear
6:53 PM 43.0 °F 28.9 °F 58% 30.42 in 10.0 mi Calm Calm - N/A   Clear
7:53 PM 41.0 °F 28.0 °F 60% 30.42 in 10.0 mi Calm Calm - N/A   Clear
8:53 PM 39.0 °F 28.0 °F 65% 30.43 in 10.0 mi Calm Calm - N/A   Clear
9:53 PM 36.0 °F 28.0 °F 73% 30.43 in 10.0 mi Calm Calm - N/A   Clear
10:53 PM 35.1 °F 27.0 °F 72% 30.44 in 10.0 mi Calm Calm - N/A   Clear
11:53 PM 34.0 °F 26.1 °F 73% 30.45 in 10.0 mi Calm Calm - N/A   Clear